• In Belarus
  • List of Countries
  • For 7 days
  • Water Temperature
  • Weather Map
  • Weather Widgets
  • user-avatar
    Login

    Hourly Weather Malaya Puscha

    Today, 18 September, Wednesday

    Time Temperature Precipitation Wind Pressure Humidity
    00:00 +7°C° 0.7 mm 0 mps 735 mmHg 94%
    01:00 +7°C° 0.7 mm 0 mps 735 mmHg 95%
    02:00 +7°C° 0.7 mm 0 mps 735 mmHg 96%
    03:00 +8°C° 1.1 mm 1 mps 734 mmHg 96%
    04:00 +7°C° 1.1 mm 2 mps 734 mmHg 96%
    05:00 +5°C° 1.1 mm 3 mps 734 mmHg 95%
    06:00 +7°C° 0.4 mm 3 mps 734 mmHg 95%
    07:00 +7°C° 0.4 mm 3 mps 735 mmHg 95%
    08:00 +7°C° 0.4 mm 3 mps 735 mmHg 95%
    09:00 +7°C° 0.3 mm 3 mps 735 mmHg 93%
    10:00 +7°C° 0.3 mm 3 mps 736 mmHg 92%
    11:00 +8°C° 0.3 mm 3 mps 736 mmHg 91%
    12:00 +9°C° 0.2 mm 3 mps 737 mmHg 87%
    13:00 +9°C° 0.2 mm 3 mps 737 mmHg 84%
    14:00 +10°C° 0.2 mm 3 mps 738 mmHg 81%
    15:00 +10°C° 0.3 mm 3 mps 738 mmHg 82%
    16:00 +10°C° 0.3 mm 3 mps 739 mmHg 83%
    17:00 +10°C° 0.3 mm 3 mps 739 mmHg 85%
    18:00 +9°C° 0 mm 3 mps 740 mmHg 88%
    19:00 +8°C° 0 mm 3 mps 740 mmHg 90%
    20:00 +6°C° 0 mm 2 mps 740 mmHg 93%
    21:00 +6°C° 0 mm 2 mps 741 mmHg 94%
    22:00 +6°C° 0 mm 2 mps 742 mmHg 96%
    23:00 +6°C° 0 mm 2 mps 742 mmHg 97%

    Tomorrow, 19 September, Thursday

    Time Temperature Precipitation Wind Pressure Humidity
    00:00 +6°C° 0 mm 2 mps 743 mmHg 97%
    01:00 +5°C° 0 mm 2 mps 743 mmHg 98%
    02:00 +5°C° 0 mm 2 mps 744 mmHg 98%
    03:00 +5°C° 0 mm 2 mps 744 mmHg 98%
    04:00 +6°C° 0 mm 2 mps 745 mmHg 97%
    05:00 +6°C° 0 mm 2 mps 745 mmHg 97%
    06:00 +6°C° 0 mm 2 mps 746 mmHg 95%
    07:00 +6°C° 0 mm 2 mps 746 mmHg 93%
    08:00 +5°C° 0 mm 3 mps 746 mmHg 91%
    09:00 +8°C° 0 mm 2 mps 747 mmHg 83%
    10:00 +9°C° 0 mm 2 mps 747 mmHg 76%
    11:00 +10°C° 0 mm 2 mps 747 mmHg 68%
    12:00 +10°C° 0.1 mm 2 mps 747 mmHg 66%
    13:00 +12°C° 0.1 mm 2 mps 747 mmHg 64%
    14:00 +11°C° 0.1 mm 3 mps 747 mmHg 62%
    15:00 +12°C° 0.1 mm 2 mps 747 mmHg 66%
    16:00 +12°C° 0.1 mm 2 mps 747 mmHg 70%
    17:00 +11°C° 0.1 mm 1 mps 747 mmHg 73%
    18:00 +10°C° 0.1 mm 1 mps 747 mmHg 77%
    19:00 +9°C° 0.1 mm 1 mps 747 mmHg 81%
    20:00 +8°C° 0.1 mm 1 mps 747 mmHg 85%
    21:00 +7°C° 0 mm 2 mps 747 mmHg 87%
    22:00 +7°C° 0 mm 2 mps 747 mmHg 89%
    23:00 +7°C° 0 mm 2 mps 746 mmHg 91%

    Day after tomorrow, 20 September, Friday

    Time Temperature Precipitation Wind Pressure Humidity
    00:00 +7°C° 0.4 mm 2 mps 746 mmHg 92%
    01:00 +7°C° 0.4 mm 3 mps 746 mmHg 93%
    02:00 +6°C° 0.4 mm 4 mps 746 mmHg 94%
    03:00 +6°C° 0.7 mm 4 mps 746 mmHg 94%
    04:00 +5°C° 0.7 mm 4 mps 746 mmHg 94%
    05:00 +5°C° 0.7 mm 4 mps 746 mmHg 93%
    06:00 +5°C° 0.2 mm 4 mps 746 mmHg 92%
    07:00 +4°C° 0.2 mm 4 mps 747 mmHg 91%
    08:00 +4°C° 0.2 mm 4 mps 747 mmHg 90%
    09:00 +5°C° 0.1 mm 4 mps 747 mmHg 86%
    10:00 +6°C° 0.1 mm 4 mps 748 mmHg 81%
    11:00 +7°C° 0.1 mm 4 mps 749 mmHg 77%
    12:00 +7°C° 0.2 mm 4 mps 749 mmHg 74%
    13:00 +8°C° 0.2 mm 4 mps 749 mmHg 72%
    14:00 +8°C° 0.2 mm 4 mps 750 mmHg 69%
    15:00 +8°C° 0.2 mm 4 mps 750 mmHg 71%
    16:00 +9°C° 0.2 mm 3 mps 750 mmHg 74%
    17:00 +8°C° 0.2 mm 3 mps 750 mmHg 77%
    18:00 +7°C° 0 mm 3 mps 751 mmHg 82%
    19:00 +5°C° 0 mm 3 mps 751 mmHg 87%
    20:00 +4°C° 0 mm 3 mps 752 mmHg 92%
    21:00 +3°C° 0 mm 3 mps 752 mmHg 93%
    22:00 +4°C° 0 mm 2 mps 753 mmHg 94%
    23:00 +3°C° 0 mm 2 mps 753 mmHg 95%

    21 September, Saturday

    Time Temperature Precipitation Wind Pressure Humidity
    00:00 +3°C° 0 mm 2 mps 753 mmHg 95%
    01:00 +2°C° 0 mm 2 mps 754 mmHg 96%
    02:00 +2°C° 0 mm 2 mps 754 mmHg 96%
    03:00 +2°C° 0 mm 2 mps 754 mmHg 96%
    04:00 +1°C° 0 mm 2 mps 754 mmHg 96%
    05:00 +2°C° 0 mm 1 mps 754 mmHg 97%
    06:00 +2°C° 0 mm 2 mps 754 mmHg 93%
    07:00 +3°C° 0 mm 2 mps 754 mmHg 89%
    08:00 +4°C° 0 mm 2 mps 754 mmHg 85%
    09:00 +4°C° 0 mm 3 mps 754 mmHg 81%
    10:00 +5°C° 0 mm 3 mps 754 mmHg 76%
    11:00 +7°C° 0 mm 4 mps 754 mmHg 71%
    12:00 +6°C° 0.4 mm 4 mps 753 mmHg 78%
    13:00 +5°C° 0.4 mm 4 mps 753 mmHg 85%
    14:00 +5°C° 0.4 mm 5 mps 752 mmHg 92%
    15:00 +5°C° 0.4 mm 5 mps 752 mmHg 93%
    16:00 +5°C° 0.4 mm 5 mps 751 mmHg 93%
    17:00 +6°C° 0.4 mm 5 mps 750 mmHg 94%
    18:00 +7°C° 0.5 mm 5 mps 750 mmHg 94%
    19:00 +8°C° 0.5 mm 5 mps 750 mmHg 94%
    20:00 +9°C° 0.5 mm 5 mps 749 mmHg 94%
    21:00 +9°C° 0 mm 6 mps 749 mmHg 93%
    22:00 +9°C° 0 mm 6 mps 749 mmHg 92%
    23:00 +10°C° 0 mm 6 mps 748 mmHg 91%

    22 September, Sunday

    Time Temperature Precipitation Wind Pressure Humidity
    00:00 +10°C° 0 mm 6 mps 748 mmHg 92%
    01:00 +9°C° 0 mm 6 mps 748 mmHg 92%
    02:00 +9°C° 0 mm 5 mps 748 mmHg 92%
    03:00 +9°C° 0 mm 6 mps 748 mmHg 93%
    04:00 +9°C° 0 mm 6 mps 748 mmHg 93%
    05:00 +9°C° 0 mm 6 mps 748 mmHg 93%
    06:00 +9°C° 0 mm 6 mps 747 mmHg 92%
    07:00 +9°C° 0 mm 6 mps 747 mmHg 92%
    08:00 +10°C° 0 mm 6 mps 747 mmHg 91%
    09:00 +10°C° 0 mm 6 mps 748 mmHg 88%
    10:00 +11°C° 0 mm 6 mps 748 mmHg 84%
    11:00 +13°C° 0 mm 6 mps 748 mmHg 81%
    12:00 +13°C° 0.1 mm 6 mps 749 mmHg 72%
    13:00 +13°C° 0.1 mm 6 mps 749 mmHg 63%
    14:00 +14°C° 0.1 mm 6 mps 749 mmHg 55%
    15:00 +13°C° 0 mm 5 mps 750 mmHg 54%
    16:00 +11°C° 0 mm 4 mps 750 mmHg 53%
    17:00 +10°C° 0 mm 3 mps 750 mmHg 53%
    18:00 +9°C° 0 mm 3 mps 750 mmHg 57%
    19:00 +7°C° 0 mm 2 mps 751 mmHg 62%
    20:00 +5°C° 0 mm 2 mps 751 mmHg 66%
    21:00 +5°C° 0 mm 2 mps 752 mmHg 69%
    22:00 +5°C° 0 mm 1 mps 752 mmHg 72%
    23:00 +4°C° 0 mm 1 mps 752 mmHg 75%

    23 September, Monday

    Time Temperature Precipitation Wind Pressure Humidity
    00:00 +4°C° 0 mm 1 mps 752 mmHg 76%
    01:00 +4°C° 0 mm 1 mps 752 mmHg 78%
    02:00 +2°C° 0 mm 0 mps 753 mmHg 79%
    03:00 +3°C° 0 mm 1 mps 753 mmHg 79%
    04:00 +3°C° 0 mm 1 mps 753 mmHg 79%
    05:00 +3°C° 0 mm 1 mps 752 mmHg 80%
    06:00 +4°C° 0 mm 1 mps 752 mmHg 76%
    07:00 +5°C° 0 mm 1 mps 752 mmHg 73%
    08:00 +6°C° 0 mm 1 mps 752 mmHg 70%
    09:00 +6°C° 0 mm 2 mps 752 mmHg 65%
    10:00 +8°C° 0 mm 2 mps 752 mmHg 60%
    11:00 +9°C° 0 mm 2 mps 752 mmHg 54%
    12:00 +10°C° 0 mm 2 mps 752 mmHg 54%
    13:00 +10°C° 0 mm 2 mps 751 mmHg 53%
    14:00 +10°C° 0 mm 3 mps 751 mmHg 53%
    15:00 +10°C° 0 mm 2 mps 751 mmHg 57%
    16:00 +9°C° 0 mm 2 mps 750 mmHg 60%
    17:00 +9°C° 0 mm 2 mps 750 mmHg 64%
    18:00 +8°C° 0.1 mm 2 mps 750 mmHg 68%
    19:00 +7°C° 0.1 mm 3 mps 750 mmHg 71%
    20:00 +7°C° 0.1 mm 3 mps 750 mmHg 75%
    21:00 +5°C° 0.1 mm 3 mps 750 mmHg 77%
    22:00 +5°C° 0.1 mm 3 mps 750 mmHg 80%
    23:00 +5°C° 0.1 mm 3 mps 750 mmHg 83%
    Show more